Location: Ehingen
(48.2869°N, 9.7112°E)
Time: 00:15:46
(UTC+01:00)

Amateur Radio Satellites - All Passes

Search period start: 19 January 2018 23:45
Search period end: 20 January 2018 23:45
Location: Ehingen, 48.2869°N, 9.7112°E

Satellite Date Start Highest point End Downlink Frequencies (MHz)
Time Altitude Azimuth
YUBILEINY 19 Jan 23:51:56 00:00:47 87° 279° (W) 00:09:40 435.215
UNISAT 6 19 Jan 23:57:14 23:59:46 15° 303° (WNW) 00:02:20 437.425
EO-79 20 Jan 00:01:44 00:05:46 38° 98° (E) 00:09:46 145.935-145.965
DUCHIFAT 1 20 Jan 00:02:37 00:06:25 30° 96° (E) 00:10:11 145.980
AIST 2D 20 Jan 00:20:01 00:23:12 33° 290° (WNW) 00:26:20 435.315
POLYITAN 1 20 Jan 00:36:09 00:40:29 86° 107° (ESE) 00:44:47 437.675
PRISM 20 Jan 00:36:51 00:39:33 17° 299° (WNW) 00:42:15 437.425
Oscar 19 20 Jan 00:44:43 00:47:48 16° 88° (E) 00:50:50 437.125/150
VELOX 1 20 Jan 00:45:41 00:49:55 47° 260° (W) 00:54:10 145.980
MOZHAYETS 4 20 Jan 00:52:08 00:53:35 11° 54° (NE) 00:55:03
nSIGHT-1 20 Jan 00:52:48 00:55:51 44° 4° (N) 00:58:56 .
NANOSAT C BR1 20 Jan 00:53:17 00:57:34 72° 286° (WNW) 01:01:48 145.865
SPROUT 20 Jan 00:55:24 00:58:45 22° 267° (W) 01:02:08 437.525
UKube-1 20 Jan 00:58:07 01:01:59 34° 67° (ENE) 01:05:52 .
ISS 20 Jan 00:59:47 01:02:57 44° 2° (N) 01:06:07 437.550
QB50P2 20 Jan 01:05:56 01:10:00 43° 291° (WNW) 01:14:04 145.880/145.840
DX 1 20 Jan 01:06:18 01:10:35 64° 72° (ENE) 01:14:53 434.975-435.025
O/OREOS (USA 219) 20 Jan 01:07:58 01:12:25 64° 112° (ESE) 01:16:53 437.305
BUGSAT 1 20 Jan 01:09:47 01:13:45 37° 97° (E) 01:17:41 437.445
50 SAT 20 Jan 01:14:59 01:18:02 69° 76° (ENE) 01:21:08 437.505
NO-84 20 Jan 01:21:39 01:23:21 14° 227° (SW) 01:25:05 435.350 FM
EO-79 20 Jan 01:37:50 01:41:20 25° 296° (WNW) 01:44:49 145.935-145.965
DUCHIFAT 1 20 Jan 01:38:18 01:42:02 30° 294° (WNW) 01:45:45 145.980
ITUPSAT 1 20 Jan 01:42:10 01:45:40 21° 60° (ENE) 01:49:11 437.325
AO-91 20 Jan 01:50:35 01:54:52 68° 102° (ESE) 01:59:38 145.960
YUBILEINY 20 Jan 01:52:16 01:59:00 24° 303° (WNW) 02:05:45 435.215
Gurwin Techsat 1B 20 Jan 01:56:53 02:02:03 49° 100° (E) 02:07:12 435.225
POLYITAN 1 20 Jan 02:13:40 02:15:36 13° 303° (WNW) 02:17:33 437.675
BEESAT 20 Jan 02:21:35 02:26:05 43° 68° (ENE) 02:30:37 436.000
Oscar 19 20 Jan 02:22:32 02:27:45 80° 287° (WNW) 02:32:54 437.125/150
MOZHAYETS 4 20 Jan 02:25:17 02:29:54 73° 74° (ENE) 02:34:34
CUBESAT XI-V 20 Jan 02:25:45 02:29:24 23° 62° (ENE) 02:33:03 437.345
nSIGHT-1 20 Jan 02:29:01 02:32:12 83° 203° (SSW) 02:35:24 .
UKube-1 20 Jan 02:34:20 02:38:01 27° 265° (W) 02:41:44 .
ISS 20 Jan 02:36:22 02:39:39 86° 15° (NNE) 02:42:57 437.550
AO-7 20 Jan 02:44:12 02:50:52 25° 91° (E) 02:57:28 .
DX 1 20 Jan 02:44:42 02:47:11 15° 270° (W) 02:49:41 434.975-435.025
BUGSAT 1 20 Jan 02:45:26 02:48:56 25° 295° (WNW) 02:52:26 437.445
O/OREOS (USA 219) 20 Jan 02:48:57 02:52:15 20° 312° (NW) 02:55:36 437.305
ITUPSAT 1 20 Jan 03:18:22 03:23:05 60° 258° (WSW) 03:27:51 437.325
ITAMSAT 1 20 Jan 03:26:05 03:30:22 25° 93° (E) 03:34:38 435.822/435.867
AO-91 20 Jan 03:28:16 03:30:59 17° 297° (WNW) 03:33:51 145.960
Gurwin Techsat 1B 20 Jan 03:37:17 03:41:45 28° 298° (WNW) 03:46:12 435.225
BEESAT 20 Jan 04:00:04 04:04:01 26° 266° (W) 04:08:00 436.000
CUBESAT XI-V 20 Jan 04:01:54 04:06:28 50° 261° (W) 04:11:03 437.345
Oscar 19 20 Jan 04:03:33 04:06:16 14° 306° (NW) 04:08:57 437.125/150
DOVE 4 20 Jan 04:03:47 04:06:15 15° 90° (E) 04:08:45 437.250
KKS-1 20 Jan 04:04:45 04:08:43 34° 66° (ENE) 04:12:42 437.445
MOZHAYETS 4 20 Jan 04:04:58 04:07:35 15° 272° (W) 04:10:12
nSIGHT-1 20 Jan 04:05:51 04:07:59 17° 222° (SW) 04:10:07 .
ISS 20 Jan 04:13:18 04:15:50 21° 220° (SW) 04:18:21 437.550
STARS 20 Jan 04:25:05 04:28:32 23° 63° (ENE) 04:32:00 437.465
AO-7 20 Jan 04:36:08 04:44:33 83° 292° (WNW) 04:52:55 .
STRAND 1 20 Jan 04:54:34 04:55:21 10° 50° (NE) 04:56:08 437.568
M-CUBED/EXP-1 PRIME 20 Jan 04:57:40 05:00:34 25° 101° (E) 05:03:21 437.505
ITAMSAT 1 20 Jan 05:05:04 05:10:05 50° 292° (WNW) 05:15:06 435.822/435.867
XW-2B 20 Jan 05:22:08 05:23:42 12° 89° (E) 05:25:15 145.730 - 145.750
SO-50 20 Jan 05:29:15 05:32:53 25° 115° (ESE) 05:36:34 436.795
DOVE 4 20 Jan 05:40:05 05:44:20 64° 286° (WNW) 05:48:46 437.250
KKS-1 20 Jan 05:41:26 05:45:17 29° 265° (W) 05:49:10 437.445
LilacSat-2 20 Jan 05:47:13 05:50:25 25° 94° (E) 05:53:34 437.200
FO-29 20 Jan 05:50:16 05:54:34 19° 56° (ENE) 05:58:36 435.910
XW-2C 20 Jan 05:51:04 05:54:16 25° 95° (E) 05:57:25 145.795 - 145.815
HO-68 20 Jan 05:58:52 06:03:38 19° 87° (E) 06:08:22 435.675
STARS 20 Jan 06:00:30 06:04:38 43° 261° (W) 06:08:49 437.465
XW-2F 20 Jan 06:28:18 06:32:03 63° 102° (ESE) 06:35:44 145.980 - 146.000
STRAND 1 20 Jan 06:28:30 06:33:28 57° 70° (ENE) 06:38:29 437.568
KAITUO 1B 20 Jan 06:28:50 06:32:26 48° 99° (E) 06:36:00 145.475/437.950
CUTE-I 20 Jan 06:29:00 06:34:11 50° 100° (E) 06:39:20 437.470
AO-7 20 Jan 06:29:49 06:36:13 25° 314° (NW) 06:42:36 .
M-CUBED/EXP-1 PRIME 20 Jan 06:32:08 06:34:56 23° 301° (WNW) 06:37:37 437.505
XW-2D 20 Jan 06:36:54 06:40:42 89° 104° (ESE) 06:44:27 145.860 - 145.880
NUDT-PHONESAT 20 Jan 06:42:03 06:45:44 65° 100° (E) 06:49:22 437.300
FALCONSAT 3 20 Jan 06:46:00 06:47:09 11° 179° (S) 06:48:18 435.103
XW-2B 20 Jan 06:54:31 06:58:16 60° 287° (WNW) 07:01:57 145.730 - 145.750
AAUSAT CUBESAT 2 20 Jan 07:07:31 07:09:50 15° 89° (E) 07:12:08 437.432
SO-50 20 Jan 07:08:41 07:13:04 51° 315° (NW) 07:17:32 436.795
SEEDS 20 Jan 07:21:00 07:25:01 44° 99° (E) 07:28:58 437.485
LilacSat-2 20 Jan 07:21:22 07:24:40 28° 292° (WNW) 07:27:56 437.200
XW-2A 20 Jan 07:22:17 07:24:08 14° 91° (E) 07:25:59 145.665 - 145.685
XW-2C 20 Jan 07:25:09 07:28:25 28° 293° (WNW) 07:31:38 145.795 - 145.815
CUBEBUG 2 20 Jan 07:30:38 07:35:22 61° 101° (E) 07:40:04 437.445
CUTE 1.7 + AOD 2 20 Jan 07:31:06 07:35:21 89° 284° (WNW) 07:39:33 437.475
FO-29 20 Jan 07:32:12 07:39:03 87° 75° (ENE) 07:45:05 435.910
TIGRISAT 20 Jan 07:33:10 07:34:35 11° 55° (NE) 07:36:00 435.000
UWE-3 20 Jan 07:38:37 07:43:06 43° 97° (E) 07:47:32 435.000/436.395/437.385
HO-68 20 Jan 07:45:08 07:52:21 87° 107° (ESE) 07:59:32 435.675
UNISAT 6 20 Jan 07:46:35 07:49:19 16° 59° (ENE) 07:52:06 437.425
RS-15 20 Jan 08:01:25 08:12:47 46° 111° (ESE) 08:23:59 29.354- 29.394
YUBILEINY 20 Jan 08:02:30 08:07:10 15° 48° (NE) 08:11:49 435.215
KAITUO 1B 20 Jan 08:03:45 08:06:03 16° 297° (WNW) 08:08:19 145.475/437.950
XW-2F 20 Jan 08:03:52 08:05:40 13° 299° (WNW) 08:07:27 145.980 - 146.000
ZACube-1 20 Jan 08:05:01 08:09:23 42° 97° (E) 08:13:41 437.345
STRAND 1 20 Jan 08:09:09 08:13:01 22° 268° (W) 08:16:56 437.568
CUTE-I 20 Jan 08:09:32 08:13:58 28° 299° (WNW) 08:18:26 437.470
AO-73 20 Jan 08:12:31 08:16:54 44° 98° (E) 08:21:12 145.935
NUDT-PHONESAT 20 Jan 08:17:30 08:19:04 12° 300° (WNW) 08:20:38 437.300
AAUSAT CUBESAT 2 20 Jan 08:41:37 08:45:39 59° 288° (WNW) 08:49:41 437.432
Oscar 11 20 Jan 08:47:03 08:51:23 62° 101° (E) 08:55:39 .
SO-50 20 Jan 08:51:49 08:54:34 16° 337° (NNW) 08:57:22 436.795
XW-2A 20 Jan 08:53:50 08:57:02 40° 289° (WNW) 09:00:11 145.665 - 145.685
SEEDS 20 Jan 08:57:17 09:00:25 21° 296° (WNW) 09:03:31 437.485
TIGRISAT 20 Jan 09:06:00 09:10:26 76° 73° (ENE) 09:15:00 435.000
CUBEBUG 2 20 Jan 09:08:07 09:11:32 20° 299° (WNW) 09:14:57 437.445
CUTE 1.7 + AOD 2 20 Jan 09:09:00 09:10:30 12° 303° (WNW) 09:11:59 437.475
UWE-3 20 Jan 09:15:28 09:19:20 26° 296° (WNW) 09:23:10 435.000/436.395/437.385
FO-29 20 Jan 09:20:19 09:24:43 18° 271° (W) 09:28:50 435.910
UNISAT 6 20 Jan 09:21:02 09:25:28 72° 258° (WSW) 09:30:02 437.425
PCSat 20 Jan 09:21:34 09:25:16 19° 106° (ESE) 09:29:00 145.827
AIST 2D 20 Jan 09:25:47 09:27:28 13° 62° (ENE) 09:29:09 435.315
DELFI C3 20 Jan 09:28:42 09:32:16 33° 96° (E) 09:35:50 145.870
HO-68 20 Jan 09:33:50 09:39:18 24° 308° (NW) 09:44:46 435.675
O/OREOS (USA 219) 20 Jan 09:35:16 09:39:18 31° 54° (NE) 09:43:18 437.305
ZACube-1 20 Jan 09:41:41 09:45:26 25° 296° (WNW) 09:49:08 437.345
AO-73 20 Jan 09:49:13 09:52:52 24° 296° (WNW) 09:56:29 145.935
PRISM 20 Jan 09:52:53 09:56:54 62° 72° (ENE) 10:00:54 437.425
YUBILEINY 20 Jan 09:57:42 10:06:20 58° 74° (ENE) 10:14:51 435.215
POLYITAN 1 20 Jan 09:58:40 10:00:45 13° 58° (ENE) 10:02:50 437.675
RS-15 20 Jan 10:12:33 10:24:52 69° 316° (NW) 10:36:56 29.354- 29.394
NANOSAT C BR1 20 Jan 10:14:35 10:17:17 17° 60° (ENE) 10:19:59 145.865
Max Valier Satellite 20 Jan 10:21:00 10:24:45 89° 104° (ESE) 10:28:26 145.860
Oscar 11 20 Jan 10:24:15 10:27:03 17° 300° (WNW) 10:29:51 .
QB50P2 20 Jan 10:26:32 10:30:03 26° 65° (ENE) 10:33:35 145.880/145.840
LO-87 20 Jan 10:33:26 10:34:31 11° 88° (E) 10:35:37 145.935 - 145.965
BEESAT 3 20 Jan 10:33:35 10:37:34 73° 124° (SE) 10:41:34 437.485
SO-50 20 Jan 10:36:04 10:36:59 10° 2° (N) 10:37:55 436.795
EO-88 20 Jan 10:42:18 10:45:58 79° 283° (WNW) 10:49:34 145.990 - 145.960
TIGRISAT 20 Jan 10:45:32 10:47:42 13° 273° (W) 10:49:54 435.000
ESTCUBE 1 20 Jan 10:52:17 10:55:17 17° 90° (E) 10:58:14 437.505/2401.250
AIST 2D 20 Jan 10:56:45 11:00:13 55° 260° (W) 11:03:41 435.315
EO-79 20 Jan 10:57:11 11:01:13 45° 70° (ENE) 11:05:18 145.935-145.965
DUCHIFAT 1 20 Jan 10:57:29 11:01:19 35° 68° (ENE) 11:05:11 145.980
PCSat 20 Jan 11:02:38 11:08:03 78° 306° (NW) 11:13:31 145.827
DELFI C3 20 Jan 11:03:42 11:06:52 24° 294° (WNW) 11:10:02 145.870
O/OREOS (USA 219) 20 Jan 11:14:40 11:18:44 34° 253° (WSW) 11:22:46 437.305
BEESAT 2 20 Jan 11:19:04 11:23:01 60° 124° (SE) 11:27:02 435.950
PRISM 20 Jan 11:30:27 11:32:34 14° 270° (W) 11:34:40 437.425
POLYITAN 1 20 Jan 11:31:40 11:35:55 81° 256° (WSW) 11:40:13 437.675
Gurwin Techsat 1B 20 Jan 11:43:53 11:47:36 20° 57° (ENE) 11:51:19 435.225
NANOSAT C BR1 20 Jan 11:48:21 11:52:31 61° 259° (W) 11:56:45 145.865
YUBILEINY 20 Jan 11:55:02 12:02:45 37° 276° (W) 12:10:26 435.215
AO-7 20 Jan 11:59:13 12:03:49 16° 36° (NE) 12:08:26 .
QB50P2 20 Jan 12:01:47 12:05:42 36° 263° (W) 12:09:39 145.880/145.840
BUGSAT 1 20 Jan 12:02:36 12:06:26 41° 69° (ENE) 12:10:21 437.445
Oscar 19 20 Jan 12:04:26 12:09:05 34° 64° (ENE) 12:13:44 437.125/150
LO-87 20 Jan 12:04:42 12:08:19 63° 286° (WNW) 12:11:54 145.935 - 145.965
BEESAT 3 20 Jan 12:12:29 12:15:30 20° 325° (NW) 12:18:33 437.485
AO-85 20 Jan 12:14:53 12:18:28 33° 117° (ESE) 12:22:18 145.980
SO-50 20 Jan 12:16:02 12:19:18 18° 27° (NNE) 12:22:36 436.795
ESTCUBE 1 20 Jan 12:28:01 12:32:27 58° 288° (WNW) 12:36:51 437.505/2401.250
RS-15 20 Jan 12:28:45 12:39:55 38° 346° (NNW) 12:50:43 29.354- 29.394
VELOX 1 20 Jan 12:32:01 12:35:35 24° 94° (E) 12:39:10 145.980
DUCHIFAT 1 20 Jan 12:33:32 12:37:02 25° 266° (W) 12:40:34 145.980
EO-79 20 Jan 12:34:04 12:37:12 20° 268° (W) 12:40:21 145.935-145.965
SPROUT 20 Jan 12:35:54 12:40:04 46° 99° (E) 12:44:12 437.525
PCSat 20 Jan 12:48:16 12:52:20 21° 328° (NNW) 12:56:25 145.827
AO-91 20 Jan 12:52:08 12:55:31 82° 74° (ENE) 12:59:02 145.960
BEESAT 2 20 Jan 12:57:47 13:01:04 23° 324° (NW) 13:04:22 435.950
ITAMSAT 1 20 Jan 13:13:09 13:14:01 10° 49° (NE) 13:14:53 435.822/435.867
Gurwin Techsat 1B 20 Jan 13:21:39 13:26:58 76° 257° (WSW) 13:32:19 435.225
BUGSAT 1 20 Jan 13:38:51 13:41:58 21° 267° (W) 13:45:08 437.445
Oscar 19 20 Jan 13:43:29 13:48:19 38° 263° (W) 13:53:12 437.125/150
AO-7 20 Jan 13:46:45 13:54:41 50° 59° (ENE) 14:02:40 .
AO-85 20 Jan 13:55:02 13:58:50 36° 320° (NW) 14:02:55 145.980
SO-50 20 Jan 13:55:55 14:00:36 67° 49° (NE) 14:05:20 436.795
50 SAT 20 Jan 13:57:33 14:00:19 28° 97° (E) 14:03:04 437.505
VELOX 1 20 Jan 14:08:03 14:12:10 40° 292° (WNW) 14:16:16 145.980
SPROUT 20 Jan 14:12:24 14:15:40 21° 297° (WNW) 14:18:55 437.525
M-CUBED/EXP-1 PRIME 20 Jan 14:14:41 14:15:44 11° 52° (NE) 14:16:48 437.505
UKube-1 20 Jan 14:16:47 14:20:45 35° 97° (E) 14:24:42 .
MOZHAYETS 4 20 Jan 14:18:12 14:20:25 13° 87° (E) 14:22:36
DX 1 20 Jan 14:26:36 14:30:57 71° 103° (ESE) 14:35:17 434.975-435.025
PCSat 20 Jan 14:36:52 14:37:58 11° 354° (N) 14:39:04 145.827
RS-15 20 Jan 14:45:02 14:56:15 41° 20° (NNE) 15:06:55 29.354- 29.394
ITAMSAT 1 20 Jan 14:47:22 14:52:25 56° 69° (ENE) 14:57:29 435.822/435.867
Gurwin Techsat 1B 20 Jan 15:06:12 15:07:49 11° 275° (W) 15:09:26 435.225
DOVE 4 20 Jan 15:12:43 15:15:59 22° 64° (ENE) 15:19:12 437.250
ITUPSAT 1 20 Jan 15:15:20 15:19:23 26° 94° (E) 15:23:24 437.325
50 SAT 20 Jan 15:29:43 15:31:51 17° 295° (WNW) 15:33:59 437.505
SO-50 20 Jan 15:37:12 15:40:39 20° 247° (WSW) 15:44:06 436.795
AO-85 20 Jan 15:38:38 15:40:35 13° 343° (NNW) 15:42:34 145.980
AO-7 20 Jan 15:39:35 15:47:32 46° 260° (W) 15:55:33 .
M-CUBED/EXP-1 PRIME 20 Jan 15:45:13 15:49:32 74° 68° (ENE) 15:53:33 437.505
UKube-1 20 Jan 15:53:01 15:56:39 27° 296° (WNW) 16:00:17 .
MOZHAYETS 4 20 Jan 15:53:30 15:58:10 80° 287° (WNW) 16:02:47
CUBESAT XI-V 20 Jan 15:54:43 15:58:49 30° 95° (E) 16:02:51 437.345
BEESAT 20 Jan 15:55:09 15:59:54 61° 102° (ESE) 16:04:38 436.000
DX 1 20 Jan 16:04:03 16:06:36 15° 301° (WNW) 16:09:09 434.975-435.025
XW-2B 20 Jan 16:07:19 16:08:43 12° 60° (ENE) 16:10:07 145.730 - 145.750
CUTE-I 20 Jan 16:16:34 16:20:21 20° 58° (ENE) 16:24:09 437.470
PCSat 20 Jan 16:21:08 16:23:55 14° 21° (NNE) 16:26:42 145.827
ITAMSAT 1 20 Jan 16:28:11 16:32:13 23° 268° (W) 16:36:16 435.822/435.867
HO-68 20 Jan 16:31:58 16:37:20 24° 51° (NE) 16:42:42 435.675
LilacSat-2 20 Jan 16:32:29 16:35:33 23° 66° (ENE) 16:38:36 437.200
XW-2C 20 Jan 16:35:42 16:38:44 23° 66° (ENE) 16:41:45 145.795 - 145.815
DOVE 4 20 Jan 16:49:27 16:53:30 40° 262° (W) 16:57:27 437.250
ITUPSAT 1 20 Jan 16:52:48 16:57:21 43° 293° (WNW) 17:01:54 437.325
CUTE 1.7 + AOD 2 20 Jan 16:53:42 16:55:43 13° 59° (ENE) 16:57:45 437.475
RS-15 20 Jan 16:58:39 17:10:36 83° 51° (NE) 17:21:52 29.354- 29.394
CUBEBUG 2 20 Jan 16:59:13 17:00:29 11° 55° (NE) 17:01:45 437.445
BEESAT 3 20 Jan 17:09:46 17:12:59 23° 36° (NE) 17:16:08 437.485
KAITUO 1B 20 Jan 17:11:43 17:15:12 38° 70° (ENE) 17:18:42 145.475/437.950
XW-2F 20 Jan 17:11:58 17:15:39 49° 72° (ENE) 17:19:21 145.980 - 146.000
XW-2D 20 Jan 17:20:54 17:24:43 71° 75° (ENE) 17:28:33 145.860 - 145.880
AO-85 20 Jan 17:21:58 17:23:03 11° 9° (N) 17:24:10 145.980
M-CUBED/EXP-1 PRIME 20 Jan 17:22:11 17:24:14 13° 264° (W) 17:26:15 437.505
NUDT-PHONESAT 20 Jan 17:23:51 17:27:28 48° 72° (ENE) 17:31:05 437.300
KKS-1 20 Jan 17:27:48 17:31:59 39° 98° (E) 17:36:10 437.445
CUBESAT XI-V 20 Jan 17:32:01 17:36:11 34° 293° (WNW) 17:40:21 437.345
MOZHAYETS 4 20 Jan 17:32:38 17:34:32 12° 305° (NW) 17:36:27
BEESAT 20 Jan 17:33:45 17:37:16 21° 300° (WNW) 17:40:45 436.000
XW-2B 20 Jan 17:38:29 17:42:19 77° 258° (WSW) 17:46:09 145.730 - 145.750
STARS 20 Jan 17:46:01 17:49:42 25° 94° (E) 17:53:22 437.465
CUTE-I 20 Jan 17:54:33 17:59:52 73° 257° (WSW) 18:05:12 437.470
BEESAT 2 20 Jan 17:56:00 17:59:08 21° 35° (NE) 18:02:14 435.950
AAUSAT CUBESAT 2 20 Jan 18:01:00 18:03:38 17° 62° (ENE) 18:06:17 437.432
PCSat 20 Jan 18:03:47 18:08:53 39° 45° (NE) 18:13:57 145.827
LilacSat-2 20 Jan 18:06:07 18:09:39 34° 264° (W) 18:13:12 437.200
XW-2C 20 Jan 18:09:13 18:12:44 34° 263° (W) 18:16:15 145.795 - 145.815
Oscar 11 20 Jan 18:13:08 18:13:51 10° 55° (NE) 18:14:35 .
NO-84 20 Jan 18:14:08 18:17:07 67° 145° (SE) 18:19:58 435.350 FM
SEEDS 20 Jan 18:15:38 18:19:41 48° 71° (ENE) 18:23:45 437.485
HO-68 20 Jan 18:17:03 18:24:13 90° 264° (W) 18:31:26 435.675
CUTE 1.7 + AOD 2 20 Jan 18:26:40 18:30:57 82° 257° (WSW) 18:35:15 437.475
CUBEBUG 2 20 Jan 18:31:50 18:36:13 74° 74° (ENE) 18:40:48 437.445
STRAND 1 20 Jan 18:36:33 18:39:23 15° 88° (E) 18:42:12 437.568
UWE-3 20 Jan 18:38:37 18:42:56 51° 71° (ENE) 18:47:23 435.000/436.395/437.385
KAITUO 1B 20 Jan 18:46:35 18:49:19 19° 268° (W) 18:52:03 145.475/437.950
BEESAT 3 20 Jan 18:46:56 18:50:48 56° 237° (WSW) 18:54:35 437.485
XW-2F 20 Jan 18:47:47 18:50:02 15° 270° (W) 18:52:17 145.980 - 146.000
XW-2D 20 Jan 18:58:18 18:59:20 11° 272° (W) 19:00:23 145.860 - 145.880
NUDT-PHONESAT 20 Jan 18:59:23 19:01:34 15° 270° (W) 19:03:44 437.300
AO-85 20 Jan 19:01:26 19:05:11 22° 32° (NNE) 19:09:09 145.980
ZACube-1 20 Jan 19:03:43 19:08:02 50° 71° (ENE) 19:12:27 437.345
KKS-1 20 Jan 19:04:41 19:08:23 26° 296° (WNW) 19:12:05 437.445
AO-73 20 Jan 19:10:52 19:15:11 52° 71° (ENE) 19:19:38 145.935
RS-15 20 Jan 19:12:01 19:21:46 33° 255° (WSW) 19:31:08 29.354- 29.394
STARS 20 Jan 19:22:02 19:26:09 38° 292° (WNW) 19:30:14 437.465
XW-2A 20 Jan 19:27:25 19:30:50 73° 257° (WSW) 19:34:16 145.665 - 145.685
BEESAT 2 20 Jan 19:33:14 19:37:16 69° 235° (SW) 19:41:12 435.950
AAUSAT CUBESAT 2 20 Jan 19:34:36 19:38:40 57° 260° (W) 19:42:45 437.432
CUTE-I 20 Jan 19:39:34 19:40:50 11° 275° (W) 19:42:07 437.470
Oscar 11 20 Jan 19:44:51 19:49:12 73° 74° (ENE) 19:53:33 .
PCSat 20 Jan 19:47:14 19:52:21 43° 245° (WSW) 19:57:26 145.827
NO-84 20 Jan 19:51:54 19:54:27 27° 345° (NNW) 19:56:56 435.350 FM
SEEDS 20 Jan 19:52:38 19:55:38 19° 269° (W) 19:58:37 437.485
HO-68 20 Jan 20:07:59 20:12:54 20° 272° (W) 20:17:51 435.675
CUBEBUG 2 20 Jan 20:11:13 20:13:26 13° 273° (W) 20:15:40 437.445
STRAND 1 20 Jan 20:14:03 20:19:13 84° 287° (WNW) 20:24:22 437.568
UWE-3 20 Jan 20:16:27 20:19:42 20° 270° (W) 20:23:02 435.000/436.395/437.385
DELFI C3 20 Jan 20:17:06 20:20:34 31° 68° (ENE) 20:24:02 145.870
FO-29 20 Jan 20:22:43 20:27:51 51° 100° (E) 20:32:55 435.910
ZACube-1 20 Jan 20:41:17 20:44:35 20° 269° (W) 20:47:59 437.345
AO-85 20 Jan 20:41:20 20:46:14 88° 53° (NE) 20:51:28 145.980
nSIGHT-1 20 Jan 20:44:26 20:46:44 19° 139° (SE) 20:49:02 .
AO-73 20 Jan 20:48:29 20:51:44 19° 270° (W) 20:55:02 145.935
TIGRISAT 20 Jan 20:55:09 20:57:31 14° 87° (E) 20:59:53 435.000
ISS 20 Jan 20:55:34 20:57:47 17° 138° (SE) 21:00:02 437.550
Max Valier Satellite 20 Jan 21:02:35 21:06:16 65° 74° (ENE) 21:10:00 145.860
UNISAT 6 20 Jan 21:09:27 21:12:56 20° 91° (E) 21:16:25 437.425
YUBILEINY 20 Jan 21:13:31 21:16:36 12° 68° (ENE) 21:19:42 435.215
EO-88 20 Jan 21:22:38 21:26:16 74° 76° (ENE) 21:29:56 145.990 - 145.960
Oscar 11 20 Jan 21:23:45 21:25:51 13° 272° (W) 21:27:56 .
NO-84 20 Jan 21:29:57 21:32:13 21° 6° (N) 21:34:30 435.350 FM
DELFI C3 20 Jan 21:52:04 21:55:19 25° 266° (W) 21:58:34 145.870
STRAND 1 20 Jan 21:54:49 21:57:39 15° 305° (NW) 22:00:29 437.568
ESTCUBE 1 20 Jan 21:54:54 21:58:37 25° 64° (ENE) 22:02:19 437.505/2401.250
FO-29 20 Jan 22:08:30 22:12:42 25° 300° (WNW) 22:16:49 435.910
nSIGHT-1 20 Jan 22:19:23 22:22:33 89° 316° (NW) 22:25:45 .
AO-85 20 Jan 22:23:01 22:26:09 17° 249° (WSW) 22:29:22 145.980
TIGRISAT 20 Jan 22:30:04 22:34:47 81° 285° (WNW) 22:39:29 435.000
ISS 20 Jan 22:30:36 22:33:52 83° 156° (SSE) 22:37:09 437.550
Max Valier Satellite 20 Jan 22:39:16 22:40:30 11° 272° (W) 22:41:45 145.860
LO-87 20 Jan 22:43:25 22:46:58 87° 74° (ENE) 22:50:35 145.935 - 145.965
UNISAT 6 20 Jan 22:45:21 22:49:57 54° 289° (WNW) 22:54:31 437.425
YUBILEINY 20 Jan 23:02:49 23:11:22 58° 91° (E) 23:19:55 435.215
PRISM 20 Jan 23:05:17 23:09:19 60° 101° (E) 23:13:21 437.425
NO-84 20 Jan 23:07:00 23:09:47 55° 26° (NNE) 23:12:39 435.350 FM
POLYITAN 1 20 Jan 23:14:14 23:16:18 13° 88° (E) 23:18:21 437.675
NANOSAT C BR1 20 Jan 23:29:41 23:32:28 17° 90° (E) 23:35:13 145.865
ESTCUBE 1 20 Jan 23:30:55 23:35:12 41° 262° (W) 23:39:31 437.505/2401.250
SPROUT 20 Jan 23:32:11 23:36:20 55° 72° (ENE) 23:40:31 437.525
VELOX 1 20 Jan 23:32:21 23:36:18 34° 67° (ENE) 23:40:16 145.980
